THORAD AGENA D DEB, 4675

Orbit data source: Space-Track

THORAD AGENA D DEB, 4675 is space debris in SSO originally from a launch on Wed, 08 Apr 1970 UTC launched from the Air Force Western Test Range (AFWTR). Debris objects in space refer to the collection of defunct objects orbiting the Earth. Examples of debris include non-operational satellites, rocket bodies, and fragments generated from explosions, collisions, or faulty payload assembly.

Loading next visibility...
Identifier
4675, 1970-025AY
Orbit
SSO
Country
Flag of USUS
Related business
Manufacturer
Unknown
Mission
Spacecraft
Bus & Motor
Unknown
Mass
Unknown
Launch date (UTC)
1970-04-08 (56 years ago)
Launch vehicle
Unknown
Launch site
Air Force Western Test Range (AFWTR)
Object type
Payload
Rocket body
Debris
Shape & HBR
Unknown shape, 1.7 m
Radar Cross Section
Large (>1 m²)

Expand to show TLE details & history
Last TLE update: 15 hours ago

TLE from 15 hours ago
0 THORAD AGENA D DEB
1 04675U 70025AY  26237.74341617  .00000005  00000-0  80144-4 0  9995
2 04675 100.1855 217.0647 0000463 173.8947   0.1675 13.51555948779157
Epoch: 2026-08-25T17:50Z
TLE epoch observation values (Epoch: 2026-08-25T17:50:31.157Z)
Latitude
5.76676°
Longitude
156.46282°
Altitude
1,068.403 km
Speed
7.318 km/s
True Right ascension
02h 32m 23s
True Declination
5° 44' 02"
Sunlit
Object was in daylight at epoch
Visualization orbit readout
Latitude
Unknown
Longitude
Unknown
Altitude
Unknown
Speed
Unknown
Apparent Right ascension
Unknown
Apparent Declination
Unknown
Sunlit
N/A
Visualization observer readout
Local Sidereal Time
00:33:59
Azimuth
Unknown
Elevation
Unknown
Doppler factor
Unknown
Orbital elements
Apogee altitude
1,064.209 km
Perigee altitude
1,063.52 km
Semi-major axis
7,442.001 km
Eccentricity
0.00005
Inclination
100.1855°
RAAN
217.0647°
Arg. of periapsis
173.8947°
True anomaly
0.16752°
Mean anomaly
0.1675°
Eccentric anomaly
0.16751°
Mean motion
3.38072 °/min
Orbital period
106.49 mins
BSTAR
0.000080144
Loading maneuver chart data...
Computing Atmospheric mass density...

Documentation

Showing up to 5 results
|